www.pogodaiklimat.ru

Погода и климат >> Архив погоды >> Пакистан >> Пад Идан


ПОГОДА в Пад Идан

  • Прогноз погоды в Пад Идан
  • Монитор погоды в Пад Идан

АРХИВ ПОГОДЫ в Пад Идан

Время (UTC), дата Ветер
(напр.,м/с)
 
Видим.   Явления Облачность Т
(С)
Тd
(С)
f
(%)
Тe
(С)
Тes
(С)
Комфортность P
(гПа)
Po
(гПа)
Тmin
(С)
Tmax
(С)
R
(мм)
R24
(мм)
S
(см)
12 14.04 СЗ 1 4000 м 5/3 1200 м
[Sc Ac trans]
+37.5 +16.7 29 +40 +42 очень
душно
1009.2 1002.5 +38.0
15 14.04 СЗ 1 4000 м 5/3 1200 м
[Sc Ac trans]
+33.0 +16.6 38 +36 +36 очень
душно
1009.2 1000.0
18 14.04 СЗ 1 4000 м 3/0
[Ac trans]
+28.0 +16.9 51 +32 +32 душно 1009.7 1004.5
21 14.04 штиль 0 4000 м 3/0
[Ac trans]
+24.5 +16.4 61 +28 +28 душно 1007.9 1002.5
00 15.04 штиль 0 4000 м 3/0
[Ac trans]
+23.0 +16.5 67 +28 +28 душно 1007.1 1000.0
03 15.04 СЗ 1 4000 м 5/3 1200 м
[Sc Ac trans]
+25.0 +17.0 61 +29 +32 душно 1010.1 1004.8 +20.5
06 15.04 СЗ 1 4000 м 6/3 1200 м
[Sc Ac trans]
+31.0 +12.6 32 +32 +43 жарко 1012.1 1000.0
09 15.04 СЗ 2 4000 м 6/3 1200 м
[Sc Ac trans]
+34.0 +13.7 29 +35 +44 очень
жарко
1009.9 1000.0
12 15.04 ЮЗ 4 2000 м пыль 6/4 300 м
[Sc Ac trans]
+32.0 +14.1 34 +34 +35 душно 1006.0 1000.8 +35.0
15 15.04 ЮЗ 1 4000 м 3/0
[Ci fib]
+28.0 +14.9 45 +31 +31 душно 1006.9 1001.5
18 15.04 Ю 1 600 м 3/0
[Ci fib]
+23.0 +14.6 59 +27 +27 душно 1007.9 1002.4
21 15.04 Ю 1 4000 м 3/0
[Ci fib]
+22.0 +18.2 79 +27 +27 душно 1006.4 1000.9
00 16.04 ЮЗ 1 4000 м 4/0
[Ac trans]
+21.0 +15.1 69 +25 +25 комфорт 1005.2 999.9
03 16.04 ЮЗ 1 4000 м 9/6 300 м
[Sc Ac trans]
+22.0 +16.3 70 +26 +27 душно 1005.9 1000.6 +19.5
06 16.04 СЗ 1 4000 м 6/3 1200 м
[Sc Ac trans]
+21.0 +17.8 82 +26 +36 душно 1009.3 1000.0 22
09 16.04 СЗ 1 4000 м 4/0
[Ac trans]
+28.0 +16.9 51 +32 +49 душно 1007.7 1000.0
12 16.04 СЗ 1 1000 м в посл. час дождь 10/5 1200 м
[Sc As op]
+24.0 +17.6 67 +28 +28 душно 1006.0 1000.0 +28.5 10
15 16.04 СЗ 1 1000 м 10/5 1200 м
[Sc As op]
+23.0 +18.3 75 +29 +29 очень
душно
1007.0 1000.0
18 16.04 СЗ 1 1000 м 5/3 1200 м
[Sc As op]
+19.0 +15.6 81 +21 +21 комфорт 1008.7 1003.2
21 16.04 СЗ 1 1000 м 5/3 300 м
[Sc As op]
+18.0 +14.6 81 +19 +19 1008.1 1002.6
00 17.04 СЗ 1 1000 м 5/3 1200 м
[Sc As op]
+17.0 +13.5 80 +19 +19 1007.8 1000.0
03 17.04 С 1 4000 м ясно +18.0 +12.7 71 +20 +25 1011.0 1000.0 +16.1
06 17.04 С 1 4000 м ясно +24.5 +16.8 62 +28 +51 опасность
солнечного
удара
1013.1 1000.0
09 17.04 С 1 4000 м 3/0
[Ac trans]
+28.0 +18.8 57 +33 +51 опасность
солнечного
удара
1010.1 1000.0
12 17.04 С 1 4000 м ясно +29.5 +15.9 44 +33 +37 душно 1008.9 1003.7 +30.1
15 17.04 С 1 4000 м ясно +26.0 +15.4 52 +29 +29 душно 1010.1 1000.0
18 17.04 С 1 4000 м ясно +24.5 +16.4 61 +28 +28 душно 1013.2 1007.9
21 17.04 штиль 0 4000 м ясно +22.0 +17.2 74 +26 +26 душно 1012.2 1000.0
00 18.04 штиль 0 2000 м дымка ясно +18.0 +15.5 85 +18 +18 1011.7 1006.3
03 18.04 С 1 2000 м дымка ясно +20.0 +14.9 72 +24 +29 комфорт 1013.6 1008.3 +17.1
06 18.04 С 1 4000 м ясно +27.5 +16.3 50 +31 +54 опасность
солнечного
удара
1016.9 1000.0
09 18.04 штиль 0 4000 м ясно +31.0 +17.9 46 +35 +60 опасность
солнечного
удара
1014.4 1009.1
12 18.04 С 1 4000 м ясно +32.0 +18.2 44 +37 +41 очень
душно
1011.2 1006.0 +33.1
15 18.04 С 1 4000 м ясно +25.5 +17.6 62 +30 +30 душно 1012.2 1006.8
18 18.04 СВ 1 4000 м ясно +24.0 +17.6 67 +28 +28 душно 1013.1 1000.0
21 18.04 штиль 0 4000 м ясно +23.0 +18.3 75 +29 +29 очень
душно
1011.9 1000.0
00 19.04 штиль 0 4000 м ясно +23.0 +18.3 75 +29 +29 очень
душно
1010.2 1004.9
03 19.04 штиль 0 4000 м ясно +24.5 +19.1 72 +29 +35 душно 1011.0 1005.7 +22.1
06 19.04 С 1 4000 м ясно +32.0 +17.2 41 +36 +57 опасность
солнечного
удара
1012.5 1007.2
09 19.04 С 1 4000 м ясно +36.0 +17.7 34 +39 +62 опасность
солнечного
удара
1010.0 1000.0
12 19.04 С 1 4000 м ясно +38.0 +20.4 36 +44 +49 опасность
перегрева
1006.0 1000.8 +38.5
15 19.04 С 1 4000 м ясно +30.0 +19.4 53 +36 +36 очень
душно
1008.1 1002.8
18 19.04 С 1 4000 м ясно +28.0 +16.9 51 +32 +32 душно 1009.1 1000.0
21 19.04 С 1 4000 м ясно +23.0 +16.5 67 +28 +28 душно 1007.8 1000.0
00 20.04 С 1 4000 м ясно +20.0 +16.7 81 +24 +24 комфорт 1007.0 1001.5
03 20.04 С 1 4000 м ясно +22.0 +15.4 66 +26 +31 душно 1007.4 1000.0 +19.1
06 20.04 СЗ 1 4000 м ясно +35.0 +21.1 44 +42 +65 опасность
перегрева
1007.4 1000.0
09 20.04 ЮЗ 1 4000 м ясно +39.5 +19.6 32 +45 +67 опасность
перегрева
1004.7 1000.0
12 20.04 ЮЗ 1 4000 м ясно +39.5 +17.6 28 +42 +47 опасность
перегрева
1002.1 997.0 +40.1
15 20.04 ЮЗ 1 4000 м ясно +34.0 +18.0 39 +38 +38 очень
душно
1003.5 1000.0
18 20.04 ЮЗ 1 4000 м ясно +29.5 +17.9 50 +34 +34 очень
душно
1005.0 999.8
21 20.04 штиль 0 4000 м ясно +26.5 +17.9 59 +31 +31 душно 1004.4 1000.0
00 21.04 штиль 0 4000 м ясно +23.0 +17.4 71 +28 +28 душно 1003.8 998.5
03 21.04 ЮЗ 1 4000 м ясно +25.0 +17.0 61 +29 +34 душно 1004.9 999.6 +21.0
06 21.04 ЮЗ 1 4000 м ясно +36.0 +17.7 34 +39 +63 опасность
солнечного
удара
1005.8 1000.7
09 21.04 0 н/о

 

Местоположение метеостанции Пад Идан (Пакистан): широта 26.85 долгота 68.13 высота над уровнем моря 47 м.

В архиве по умолчанию представлена погода в Пад Идан за последнюю неделю. Архивные данные за месяц целиком и за предыдущие месяцы, начиная с января 2011 года, Вы можете получить, выбрав интересующий диапазон дат из раскрывающегося списка и нажав кнопку "Ввод!".


*Определитесь, кто Вы:
робот инопланетянин человек

Внимание! Время в таблицах - всемирное. Для получения местного времени необходимо прибавить поправку, которая равна 5 ч.

Смотрите также архив погоды в соседних городах и на ближайших метеорологических станциях:

Погода в Мохенджо-Даро (Пакистан) (52 км)
Погода в Навабшахе (Пакистан) (71 км)
Погода в Ларкане (Пакистан) (78 км)
Погода в Суккуре (Пакистан) (115 км)
Погода в Рохри (Пакистан) (119 км)
Погода в Даду (Пакистан) (138 км)
Погода в Джейкобабаде (Пакистан) (165 км)
Погода в Хайдарабате (Пакистан) (166 км)
Погода в Мир Пур Кхас (Пакистан) (170 км)
Погода в Хуздаре (Пакистан) (184 км)

Пояснения к столбцам:

Ветер - указаны скорость ветра в м/с - средняя за 10 мин, порывы в срок и между сроками (в фигурных скобках) и направление, откуда дует ветер: С - северный, СВ - северо-восточный, В - восточный, ЮВ - юго-восточный, Ю - южный, ЮЗ - юго-западный, З - западный, СЗ - северо-западный.
Видимость - горизонтальная дальность видимости в метрах или километрах. При видимости от 1 до 10 км при отсутствии осадков обычно наблюдается дымка, при ухудшении видимости до 1 км и менее - туман. В сухую погоду видимость может ухудшаться дымом, пылью или мглою.
Явления - указаны атмосферные явления, наблюдавшиеся в срок или в последний час перед сроком; фигурными скобками обозначены явления, наблюдавшиеся между сроками (за 1-3 часа до срока); квадратными скобками обозначены град или гололедные отложения с указанием их диаметра в мм.
Облачность - указаны через наклонную черту общая и нижняя облачность в баллах и высота нижней границы облаков в метрах; квадратными скобками обозначены формы облаков: Ci - перистые, Cs - перисто-слоистые, Cc - перисто-кучевые, Ac - высококучевые, As - высокослоистые, Sc - слоисто-кучевые, Ns - слоисто-дождевые, Cu - кучевые, Cb - кучево-дождевые. Подробнее классификацию облаков см. в Атласе облаков (PDF).
T - Температура воздуха - температура, измеренная на высоте 2 м над землей.
Td - Температура точки росы - температура, при понижении до которой содержащийся в воздухе водяной пар достигнет насыщения.
f - Относительная влажность воздуха - влажноcть воздуха, измеренная на высоте 2 м над землей.
Te - Эффективная температура - температура, которую ощущает одетый по сезону человек в тени. Характеристика душности погоды. При расчете учитывается влияние влажности воздуха и скорости ветра на теплоощущения человека.
Tes - Эффективная температура на солнце - температура, которую ощущает человек, с поправкой на солнечный нагрев. Характеристика знойности погоды. Зависит от высоты солнца над горизонтом, облачности и скорости ветра. Ночью, в пасмурную погоду, а также при ветре 12 м/с и более поправка равна нулю.
P - Атмосферное давление - приведенное к уровню моря атмосферное давление.
Po - Атмосферное давление - измеренное на уровне метеостанции атмосферное давление.
Tmin - Минимальная температура - минимум температуры воздуха на высоте 2 м над землей.
Tmax - Максимальная температура - максимум температуры воздуха на высоте 2 м над землей.
R - Количество осадков - Количество выпавших осадков за период времени, мм. При наведении курсора мыши на число - период времени, за который выпало указанное количество осадков.
R24 - Количество осадков - Количество выпавших осадков за 24 часа, мм.
S - Снежный покров - Высота снежного покрова, см. При наведении курсора мыши на число - состояние снежного покрова и степень покрытия местности в баллах.